GFSMW_prec_pwat_330.txt.gz
Precipitable_Water
0.18 0.20 0.23 0.23 0.20 0.27 0.99 1.09 1.21 1.29 1.53 1.58 1.52 1.34 1.20 1.48 1.69 1.94 1.77 1.73 1.77 1.46 1.35 1.34 1.48 1.50 1.64 1.66 1.51 1.24 1.09 1.02 1.09 1.14 1.10 1.07 1.14 1.16 1.11 1.08 0.99 0.99 0.99
0.21 0.18 0.20 0.24 0.25 0.31 0.89 1.04 1.15 1.29 1.41 1.60 1.64 1.49 1.33 1.29 1.51 1.70 1.81 1.80 1.76 1.74 1.65 1.49 1.51 1.58 1.72 1.56 1.54 1.15 0.96 0.92 1.06 0.97 0.98 0.84 0.99 1.09 1.09 1.07 0.97 0.97 0.98
0.21 0.22 0.23 0.24 0.32 0.35 0.85 1.02 1.10 1.28 1.27 1.57 1.63 1.58 1.47 1.30 1.29 1.47 1.65 1.82 1.71 1.67 1.64 1.56 1.42 1.56 1.42 1.23 1.29 1.07 0.88 0.76 1.00 1.04 0.98 0.84 0.80 0.95 1.06 1.04 1.01 0.96 0.95
0.41 0.38 0.33 0.24 0.28 0.50 0.90 1.00 1.13 1.22 1.29 1.43 1.53 1.54 1.39 1.14 1.10 1.27 1.43 1.56 1.58 1.68 1.60 1.58 1.43 1.29 1.22 1.21 1.15 1.13 0.94 0.88 0.86 1.13 1.16 1.16 1.04 0.87 0.78 1.01 1.05 1.00 0.95
0.45 0.42 0.41 0.42 0.46 0.42 0.95 1.02 1.13 1.17 1.28 1.26 1.47 1.51 1.36 1.27 1.19 1.23 1.33 1.42 1.61 1.68 1.58 1.58 1.73 1.23 1.21 1.35 1.12 1.07 0.98 0.93 0.98 1.07 1.12 1.14 1.13 1.04 0.86 0.76 0.87 0.97 1.00
0.46 0.46 0.45 0.45 0.44 0.52 0.79 1.10 1.10 1.08 1.20 1.26 1.32 1.48 1.37 1.31 1.20 1.13 1.16 1.28 1.50 1.49 1.52 1.56 1.48 1.31 1.18 1.21 1.10 1.05 1.02 0.97 1.03 1.07 1.09 1.11 1.01 0.93 0.89 0.82 0.83 0.85 0.95
0.42 0.45 0.43 0.43 0.44 0.48 0.66 1.27 1.03 1.07 1.14 1.20 1.28 1.48 1.47 1.33 1.24 1.16 1.03 1.08 1.28 1.30 1.37 1.39 1.32 1.27 1.11 1.14 1.12 1.07 1.02 1.02 1.05 1.07 1.10 1.20 1.17 1.13 1.02 0.90 0.86 0.83 0.93
0.42 0.45 0.48 0.48 0.47 0.53 0.69 1.14 1.28 0.96 1.00 1.06 1.18 1.44 1.52 1.40 1.34 1.25 1.06 1.00 1.10 1.20 1.28 1.40 1.31 1.22 1.14 1.13 1.10 1.07 1.00 1.00 1.09 1.18 1.30 1.29 1.28 1.26 1.14 0.98 0.88 0.82 0.84
0.39 0.41 0.47 0.52 0.52 0.57 0.67 0.90 1.14 1.32 1.02 0.98 1.08 1.37 1.49 1.45 1.38 1.26 1.18 0.97 0.99 1.13 1.21 1.31 1.33 1.15 1.15 1.01 1.11 1.03 0.96 1.01 1.11 1.23 1.34 1.34 1.38 1.35 1.26 1.16 1.11 0.96 0.79
0.40 0.41 0.43 0.49 0.56 0.59 0.66 0.79 1.19 1.22 1.11 1.09 1.10 1.28 1.45 1.48 1.43 1.38 1.12 1.03 0.91 1.04 1.15 1.13 1.26 1.18 1.07 0.95 0.98 1.02 1.03 0.95 0.95 1.10 1.24 1.29 1.33 1.38 1.29 1.21 1.21 1.14 1.01
0.38 0.40 0.42 0.46 0.52 0.58 0.62 0.66 0.88 1.19 1.26 1.03 1.08 1.18 1.45 1.44 1.45 1.40 1.26 0.99 1.00 0.93 1.09 1.11 1.09 1.18 1.02 0.98 0.93 0.93 0.95 0.90 0.90 0.96 1.10 1.21 1.23 1.30 1.29 1.20 1.16 1.12 1.10
0.38 0.40 0.42 0.45 0.46 0.50 0.56 0.62 0.74 0.99 1.46 1.31 1.09 1.18 1.44 1.48 1.45 1.46 1.35 1.10 0.99 0.97 0.97 1.08 1.06 1.08 1.10 1.03 0.91 0.88 0.90 0.89 0.89 0.89 1.00 1.10 1.19 1.19 1.24 1.21 1.16 1.15 1.18
0.39 0.42 0.43 0.43 0.46 0.47 0.53 0.60 0.74 0.96 1.06 1.41 1.21 1.21 1.43 1.46 1.45 1.48 1.49 1.25 1.02 0.95 0.92 0.98 1.03 1.01 1.05 1.03 0.97 0.87 0.88 0.93 0.93 0.92 0.92 1.00 1.06 1.15 1.26 1.24 1.16 1.20 1.23
0.39 0.41 0.44 0.45 0.48 0.48 0.53 0.60 0.72 0.87 1.04 1.45 1.31 1.13 1.38 1.46 1.46 1.47 1.42 1.35 1.06 0.95 0.89 0.88 0.95 0.98 0.97 0.98 0.93 0.92 0.91 0.92 0.95 0.96 0.97 1.00 1.04 1.07 1.14 1.15 1.15 1.17 1.18
0.37 0.39 0.42 0.44 0.47 0.48 0.52 0.62 0.71 0.82 0.98 0.98 1.39 1.19 1.17 1.39 1.47 1.46 1.41 1.38 1.16 1.03 0.96 0.83 0.86 0.95 0.92 0.91 0.89 0.90 0.89 0.88 0.90 0.96 1.04 1.04 1.06 1.09 1.14 1.18 1.21 1.23 1.19
0.36 0.39 0.42 0.46 0.45 0.48 0.53 0.58 0.65 0.76 0.92 0.90 1.13 1.31 1.15 1.36 1.49 1.46 1.42 1.37 1.28 1.17 1.11 0.94 0.79 0.82 0.87 0.92 0.90 0.91 0.90 0.91 0.93 0.93 1.01 1.10 1.17 1.23 1.28 1.32 1.34 1.34 1.27
0.35 0.38 0.41 0.46 0.50 0.52 0.55 0.58 0.61 0.64 0.73 0.84 1.05 1.19 1.26 1.31 1.59 1.45 1.44 1.33 1.30 1.30 1.22 1.10 0.84 0.76 0.80 0.85 0.91 0.95 0.96 0.95 0.97 0.99 1.04 1.06 1.15 1.22 1.30 1.32 1.35 1.28 1.34
0.31 0.36 0.40 0.43 0.48 0.52 0.58 0.58 0.64 0.66 0.66 0.72 0.94 1.07 1.12 1.14 1.33 1.39 1.33 1.38 1.33 1.29 1.27 1.23 1.19 1.08 0.95 0.89 0.88 0.91 0.95 1.04 1.14 1.16 1.16 1.22 1.26 1.30 1.25 1.28 1.24 1.24 1.27
0.28 0.31 0.36 0.43 0.48 0.50 0.54 0.56 0.60 0.64 0.66 0.73 0.80 0.91 1.06 1.06 1.22 1.33 1.35 1.36 1.38 1.31 1.34 1.32 1.27 1.21 1.21 1.27 1.17 1.15 1.16 1.17 1.20 1.31 1.33 1.31 1.27 1.27 1.27 1.20 1.22 1.26 1.28
0.24 0.27 0.30 0.35 0.43 0.48 0.51 0.52 0.52 0.63 0.66 0.70 0.77 0.84 0.97 1.00 1.01 1.15 1.28 1.38 1.42 1.36 1.38 1.37 1.38 1.35 1.32 1.35 1.35 1.30 1.24 1.13 1.23 1.34 1.38 1.42 1.37 1.28 1.26 1.24 1.24 1.20 1.23
0.21 0.24 0.26 0.29 0.34 0.45 0.48 0.47 0.56 0.54 0.67 0.72 0.73 0.82 0.83 0.92 0.94 0.97 1.01 1.13 1.34 1.42 1.40 1.34 1.37 1.36 1.33 1.32 1.33 1.28 1.26 1.23 1.22 1.27 1.31 1.35 1.31 1.32 1.30 1.28 1.26 1.23 1.24
0.21 0.22 0.23 0.25 0.30 0.34 0.41 0.43 0.46 0.55 0.67 0.60 0.66 0.71 0.75 0.84 0.89 1.01 1.07 1.16 1.17 1.21 1.23 1.24 1.23 1.25 1.27 1.29 1.30 1.30 1.33 1.33 1.33 1.28 1.29 1.24 1.24 1.24 1.21 1.17 1.16 1.15 1.14
0.22 0.22 0.23 0.23 0.26 0.28 0.33 0.37 0.41 0.50 0.57 0.62 0.67 0.64 0.69 0.80 0.80 0.87 0.90 0.95 1.02 1.05 1.09 1.12 1.12 1.11 1.15 1.16 1.22 1.25 1.29 1.26 1.23 1.25 1.23 1.21 1.15 1.15 1.13 1.09 1.10 1.13 1.10
0.21 0.25 0.23 0.23 0.23 0.27 0.27 0.29 0.37 0.45 0.47 0.51 0.55 0.59 0.67 0.64 0.70 0.76 0.84 0.85 0.90 0.92 0.95 0.96 0.97 1.02 1.06 1.10 1.11 1.13 1.14 1.15 1.14 1.12 1.13 1.11 1.08 1.06 1.06 1.05 1.04 1.06 1.05
0.22 0.23 0.24 0.25 0.24 0.25 0.26 0.28 0.29 0.34 0.41 0.43 0.50 0.60 0.59 0.64 0.66 0.69 0.75 0.76 0.82 0.83 0.82 0.85 0.90 0.93 0.92 1.00 1.02 1.07 1.04 1.06 1.08 1.08 1.05 1.01 0.99 0.96 0.98 0.99 1.00 1.00 1.00
0.23 0.24 0.25 0.26 0.26 0.25 0.24 0.26 0.29 0.29 0.33 0.39 0.46 0.51 0.53 0.57 0.60 0.61 0.68 0.74 0.73 0.81 0.80 0.84 0.87 0.92 0.94 0.96 0.98 1.00 1.01 1.03 1.07 1.00 0.97 0.96 0.95 0.94 0.93 0.93 0.92 0.93 0.93

GFSMW_prec_pwat_336.txt.gz
Precipitable_Water
0.38 0.41 0.42 0.44 0.48 0.51 0.74 1.16 1.13 1.05 1.13 1.17 1.24 1.33 1.46 1.56 1.60 1.63 1.66 1.82 1.77 1.82 1.75 1.56 1.15 1.18 1.21 1.28 1.30 1.38 1.55 1.58 1.61 1.51 1.07 1.02 1.17 1.15 1.13 1.08 0.99 0.98 0.98
0.37 0.40 0.41 0.43 0.49 0.55 0.66 0.91 1.20 1.31 0.95 1.08 1.15 1.26 1.42 1.58 1.61 1.62 1.56 1.63 1.76 1.71 1.63 1.54 1.25 1.21 1.38 1.36 1.49 1.42 1.54 1.58 1.64 1.43 1.00 0.78 1.00 1.09 1.09 1.07 0.99 0.96 0.97
0.36 0.40 0.42 0.44 0.48 0.56 0.68 0.85 0.96 1.29 1.36 1.14 1.18 1.32 1.46 1.55 1.57 1.55 1.49 1.59 1.62 1.64 1.57 1.45 1.29 1.39 1.61 1.65 1.58 1.60 1.47 1.41 1.56 1.49 0.86 0.77 0.83 0.92 1.03 1.02 0.98 0.94 0.91
0.41 0.43 0.45 0.46 0.48 0.55 0.68 0.83 1.01 1.15 1.52 1.44 1.31 1.05 1.08 1.15 1.44 1.54 1.51 1.55 1.61 1.58 1.49 1.44 1.49 1.57 1.58 1.69 1.65 1.66 1.61 1.54 1.35 1.30 1.01 1.04 1.05 0.81 0.77 0.96 0.97 0.94 0.88
0.43 0.43 0.47 0.50 0.52 0.54 0.62 0.76 0.98 1.09 1.30 1.53 1.43 1.26 1.07 1.17 1.35 1.55 1.51 1.56 1.57 1.50 1.39 1.50 1.56 1.53 1.53 1.72 1.69 1.68 1.65 1.62 1.42 1.19 0.95 0.94 1.01 1.00 0.88 0.77 0.83 0.95 0.95
0.46 0.46 0.48 0.52 0.53 0.55 0.59 0.68 0.82 1.03 1.13 1.35 1.36 1.45 1.23 1.17 1.21 1.39 1.52 1.47 1.55 1.49 1.41 1.46 1.49 1.44 1.51 1.61 1.70 1.75 1.64 1.55 1.49 1.29 1.01 0.88 0.84 0.93 0.93 0.82 0.84 0.83 0.91
0.43 0.49 0.47 0.49 0.52 0.53 0.57 0.64 0.72 0.87 1.07 1.17 1.38 1.48 1.41 1.37 1.19 1.30 1.45 1.47 1.39 1.48 1.39 1.33 1.35 1.45 1.51 1.64 1.71 1.64 1.65 1.52 1.47 1.20 0.93 0.91 1.00 1.18 1.11 0.96 0.87 0.83 0.91
0.40 0.47 0.51 0.49 0.50 0.52 0.57 0.61 0.66 0.75 0.95 1.12 1.29 1.48 1.42 1.43 1.38 1.33 1.22 1.36 1.43 1.42 1.45 1.32 1.29 1.43 1.49 1.51 1.59 1.64 1.47 1.44 1.36 1.17 1.00 0.89 1.03 1.26 1.19 1.04 0.92 0.83 0.83
0.37 0.44 0.50 0.51 0.50 0.51 0.54 0.60 0.63 0.68 0.80 0.90 1.23 1.40 1.45 1.39 1.48 1.46 1.41 1.49 1.55 1.44 1.41 1.41 1.36 1.37 1.40 1.39 1.49 1.49 1.27 1.23 1.18 1.11 1.08 0.94 1.00 1.21 1.15 1.08 1.10 0.95 0.80
0.36 0.41 0.44 0.50 0.51 0.52 0.53 0.57 0.62 0.66 0.73 0.81 0.87 1.21 1.34 1.47 1.51 1.47 1.41 1.41 1.55 1.53 1.37 1.43 1.42 1.40 1.41 1.48 1.46 1.37 1.31 1.20 1.12 1.07 1.07 1.00 0.98 1.12 1.21 1.19 1.22 1.15 1.03
0.33 0.37 0.42 0.47 0.51 0.51 0.52 0.54 0.57 0.64 0.69 0.72 0.77 0.92 1.20 1.37 1.52 1.52 1.46 1.39 1.47 1.53 1.37 1.42 1.39 1.37 1.40 1.38 1.45 1.34 1.29 1.26 1.13 1.18 1.07 1.03 0.93 1.04 1.22 1.35 1.31 1.20 1.16
0.28 0.34 0.38 0.44 0.51 0.49 0.50 0.52 0.55 0.58 0.66 0.72 0.71 0.79 0.98 1.16 1.37 1.44 1.48 1.48 1.43 1.49 1.53 1.32 1.36 1.36 1.39 1.25 1.34 1.34 1.36 1.20 1.09 1.05 1.00 0.95 0.94 1.03 1.22 1.38 1.30 1.26 1.20
0.28 0.29 0.34 0.38 0.46 0.48 0.48 0.51 0.53 0.55 0.60 0.67 0.70 0.76 0.91 1.12 1.31 1.40 1.38 1.50 1.49 1.47 1.52 1.51 1.28 1.30 1.34 1.23 1.24 1.34 1.42 1.33 1.21 1.06 1.02 0.92 0.90 0.92 1.10 1.25 1.23 1.26 1.23
0.26 0.26 0.29 0.33 0.39 0.44 0.45 0.49 0.52 0.53 0.56 0.58 0.62 0.65 0.72 0.86 1.13 1.41 1.41 1.38 1.51 1.48 1.48 1.50 1.36 1.22 1.24 1.20 1.24 1.27 1.39 1.39 1.26 1.18 1.11 0.95 0.89 0.85 0.91 1.01 1.10 1.15 1.15
0.24 0.26 0.26 0.29 0.32 0.39 0.43 0.45 0.49 0.51 0.54 0.53 0.54 0.59 0.64 0.73 0.93 1.23 1.30 1.43 1.42 1.46 1.49 1.49 1.50 1.28 1.15 1.16 1.14 1.20 1.29 1.34 1.20 1.16 1.14 1.09 0.95 0.90 0.93 0.89 0.90 1.01 1.00
0.24 0.24 0.26 0.27 0.29 0.33 0.37 0.40 0.44 0.47 0.50 0.50 0.49 0.55 0.60 0.63 0.71 0.97 1.22 1.36 1.39 1.39 1.46 1.49 1.51 1.45 1.21 1.12 1.10 1.14 1.13 1.21 1.20 1.07 1.03 1.19 1.02 0.91 0.92 0.93 0.91 0.92 0.98
0.22 0.24 0.26 0.27 0.29 0.31 0.34 0.35 0.38 0.41 0.45 0.47 0.48 0.48 0.53 0.58 0.61 0.79 1.06 1.17 1.36 1.32 1.42 1.41 1.45 1.47 1.42 1.17 1.06 1.09 1.14 1.11 1.07 1.01 1.00 1.01 1.05 0.99 0.94 0.90 0.91 0.90 0.97
0.19 0.22 0.23 0.27 0.28 0.28 0.29 0.32 0.35 0.37 0.39 0.44 0.46 0.48 0.48 0.53 0.59 0.66 0.77 0.96 1.14 1.24 1.35 1.42 1.42 1.43 1.46 1.29 1.10 0.98 1.07 1.11 1.07 1.02 0.99 0.96 0.94 0.95 0.95 0.91 0.85 0.88 0.93
0.19 0.20 0.23 0.25 0.27 0.28 0.28 0.29 0.31 0.36 0.37 0.41 0.46 0.48 0.51 0.53 0.56 0.62 0.71 0.84 0.95 1.11 1.17 1.27 1.42 1.42 1.53 1.49 1.40 1.17 0.99 1.04 1.07 1.08 1.04 0.96 0.91 0.87 0.88 0.87 0.84 0.88 0.93
0.18 0.20 0.22 0.23 0.24 0.27 0.28 0.28 0.29 0.32 0.35 0.39 0.46 0.49 0.51 0.53 0.54 0.61 0.69 0.79 0.88 1.08 1.18 1.25 1.40 1.34 1.42 1.52 1.45 1.32 1.11 0.97 0.95 1.03 1.05 1.02 0.94 0.90 0.89 0.93 0.93 0.93 0.99
0.19 0.21 0.22 0.22 0.24 0.26 0.27 0.28 0.27 0.30 0.36 0.40 0.45 0.49 0.54 0.58 0.61 0.63 0.64 0.76 0.90 0.96 1.02 1.14 1.24 1.37 1.38 1.39 1.45 1.36 1.22 1.06 0.96 0.90 0.90 0.94 0.96 0.96 0.95 1.09 1.17 1.14 1.20
0.19 0.20 0.21 0.22 0.25 0.26 0.26 0.26 0.27 0.30 0.36 0.38 0.42 0.48 0.52 0.54 0.56 0.58 0.62 0.69 0.80 0.84 0.91 1.00 1.07 1.15 1.20 1.24 1.29 1.38 1.33 1.20 1.06 0.98 0.94 0.93 0.94 1.06 1.17 1.28 1.29 1.31 1.32
0.18 0.20 0.21 0.22 0.24 0.25 0.26 0.26 0.30 0.30 0.33 0.36 0.38 0.45 0.50 0.55 0.60 0.56 0.57 0.63 0.68 0.72 0.76 0.90 0.96 0.98 1.06 1.12 1.21 1.27 1.36 1.31 1.27 1.20 1.15 1.06 1.13 1.26 1.32 1.36 1.35 1.35 1.31
0.19 0.21 0.22 0.23 0.23 0.25 0.27 0.28 0.31 0.32 0.33 0.33 0.36 0.39 0.44 0.49 0.56 0.59 0.59 0.56 0.56 0.59 0.69 0.75 0.83 0.90 0.93 1.00 1.12 1.19 1.28 1.31 1.26 1.33 1.24 1.24 1.33 1.36 1.39 1.32 1.31 1.29 1.24
0.20 0.22 0.22 0.23 0.23 0.25 0.26 0.28 0.31 0.32 0.32 0.33 0.33 0.34 0.42 0.45 0.50 0.56 0.60 0.63 0.68 0.70 0.68 0.74 0.75 0.81 0.85 0.96 1.04 1.07 1.13 1.21 1.25 1.22 1.27 1.27 1.22 1.23 1.26 1.24 1.21 1.21 1.19
0.21 0.21 0.23 0.23 0.23 0.24 0.25 0.26 0.29 0.31 0.31 0.32 0.33 0.33 0.36 0.41 0.45 0.51 0.56 0.63 0.68 0.71 0.75 0.77 0.77 0.85 0.85 0.90 0.95 1.04 1.09 1.07 1.14 1.08 1.10 1.11 1.16 1.18 1.14 1.14 1.14 1.13 1.11

GFSMW_prec_pwat_342.txt.gz
Precipitable_Water
0.27 0.31 0.32 0.35 0.41 0.46 0.52 0.56 0.62 0.78 0.87 1.03 1.12 1.26 1.26 1.30 1.41 1.55 1.73 1.76 1.73 1.73 1.79 1.75 1.75 1.73 1.68 1.70 1.72 1.73 1.61 1.58 1.49 1.49 1.32 1.33 1.22 1.04 1.07 1.03 0.96 0.88 0.77
0.25 0.28 0.30 0.31 0.34 0.41 0.47 0.55 0.58 0.68 0.86 0.92 1.06 1.18 1.30 1.36 1.37 1.46 1.62 1.78 1.77 1.66 1.63 1.71 1.63 1.61 1.56 1.63 1.69 1.69 1.57 1.55 1.48 1.39 1.26 1.11 1.06 0.98 1.04 1.05 1.00 0.92 0.92
0.25 0.26 0.28 0.30 0.33 0.35 0.44 0.52 0.58 0.64 0.78 0.93 1.01 1.18 1.41 1.37 1.37 1.40 1.46 1.64 1.80 1.73 1.70 1.63 1.52 1.49 1.44 1.47 1.62 1.64 1.61 1.40 1.25 1.31 1.23 1.08 0.89 0.85 0.92 1.01 1.02 0.96 0.92
0.26 0.27 0.28 0.29 0.32 0.34 0.40 0.49 0.58 0.62 0.70 0.91 0.95 1.04 1.19 1.21 1.31 1.31 1.48 1.58 1.76 1.77 1.65 1.64 1.57 1.48 1.30 1.31 1.31 1.55 1.57 1.32 1.17 1.30 1.43 1.37 1.16 0.94 0.74 0.90 0.99 1.01 0.94
0.23 0.24 0.27 0.30 0.34 0.37 0.37 0.44 0.54 0.63 0.67 0.78 0.93 0.98 1.12 1.27 1.37 1.38 1.47 1.45 1.58 1.76 1.72 1.72 1.59 1.52 1.48 1.42 1.32 1.16 1.23 1.31 1.22 1.35 1.40 1.36 1.29 1.18 0.88 0.73 0.81 0.96 0.94
0.23 0.24 0.28 0.30 0.33 0.36 0.38 0.41 0.49 0.58 0.66 0.74 0.87 0.97 1.01 1.13 1.30 1.33 1.39 1.39 1.52 1.62 1.69 1.64 1.54 1.55 1.55 1.46 1.37 1.25 1.10 1.20 1.30 1.40 1.42 1.34 1.32 1.25 1.01 0.78 0.79 0.84 0.89
0.22 0.23 0.24 0.28 0.30 0.33 0.36 0.40 0.44 0.53 0.61 0.70 0.78 0.94 1.01 1.09 1.20 1.37 1.33 1.36 1.39 1.50 1.56 1.63 1.54 1.59 1.56 1.51 1.43 1.39 1.18 1.17 1.25 1.31 1.34 1.38 1.42 1.47 1.22 0.84 0.82 0.87 0.93
0.23 0.24 0.24 0.27 0.29 0.31 0.35 0.38 0.42 0.47 0.59 0.64 0.73 0.84 0.94 1.03 1.11 1.31 1.44 1.46 1.40 1.47 1.58 1.65 1.63 1.58 1.50 1.51 1.42 1.41 1.29 1.25 1.31 1.35 1.41 1.42 1.51 1.52 1.36 0.88 0.84 0.89 0.85
0.24 0.24 0.26 0.27 0.29 0.30 0.34 0.37 0.41 0.46 0.54 0.62 0.69 0.76 0.92 0.98 1.04 1.26 1.34 1.55 1.45 1.56 1.54 1.59 1.64 1.59 1.55 1.46 1.47 1.36 1.21 1.36 1.42 1.42 1.47 1.51 1.57 1.57 1.45 1.19 0.94 1.00 0.83
0.26 0.27 0.26 0.26 0.28 0.30 0.33 0.37 0.39 0.44 0.51 0.60 0.64 0.72 0.80 0.92 1.05 1.09 1.27 1.26 1.56 1.54 1.53 1.53 1.57 1.60 1.56 1.53 1.50 1.40 1.34 1.40 1.53 1.56 1.58 1.57 1.61 1.62 1.52 1.30 1.04 1.09 1.09
0.24 0.27 0.28 0.29 0.28 0.30 0.31 0.34 0.37 0.42 0.49 0.57 0.62 0.67 0.75 0.87 0.97 1.06 1.15 1.26 1.32 1.45 1.59 1.48 1.56 1.51 1.52 1.48 1.40 1.41 1.40 1.32 1.38 1.53 1.53 1.56 1.59 1.57 1.50 1.35 1.13 1.12 1.15
0.22 0.22 0.26 0.29 0.30 0.29 0.31 0.32 0.36 0.39 0.47 0.53 0.61 0.63 0.67 0.77 0.85 0.99 1.09 1.20 1.34 1.40 1.55 1.55 1.47 1.49 1.52 1.48 1.37 1.33 1.43 1.43 1.36 1.47 1.54 1.52 1.56 1.52 1.48 1.37 1.18 1.05 1.15
0.20 0.21 0.22 0.24 0.28 0.29 0.30 0.32 0.34 0.38 0.47 0.51 0.58 0.62 0.63 0.66 0.74 0.81 0.98 1.09 1.18 1.26 1.25 1.40 1.51 1.43 1.54 1.50 1.42 1.38 1.35 1.41 1.46 1.45 1.44 1.50 1.53 1.45 1.43 1.38 1.18 1.08 1.09
0.19 0.20 0.22 0.21 0.23 0.29 0.30 0.31 0.33 0.36 0.44 0.50 0.53 0.60 0.60 0.62 0.65 0.74 0.81 0.92 1.05 1.11 1.15 1.17 1.45 1.48 1.50 1.49 1.46 1.38 1.42 1.40 1.41 1.52 1.41 1.43 1.43 1.45 1.34 1.31 1.03 0.94 0.83
0.16 0.18 0.20 0.21 0.21 0.26 0.30 0.31 0.33 0.35 0.42 0.45 0.48 0.54 0.61 0.61 0.61 0.65 0.74 0.84 0.89 0.99 1.07 1.11 1.22 1.34 1.49 1.50 1.44 1.39 1.33 1.33 1.39 1.45 1.39 1.43 1.37 1.25 1.20 1.14 0.99 0.91 0.93
0.16 0.18 0.19 0.20 0.21 0.24 0.28 0.31 0.32 0.34 0.41 0.42 0.44 0.47 0.56 0.60 0.59 0.60 0.62 0.74 0.85 0.94 1.05 1.12 1.15 1.39 1.42 1.53 1.51 1.52 1.46 1.38 1.36 1.37 1.47 1.40 1.22 1.16 1.09 1.04 1.03 1.08 0.99
0.15 0.17 0.18 0.19 0.22 0.23 0.27 0.29 0.31 0.34 0.37 0.41 0.43 0.45 0.49 0.54 0.57 0.58 0.59 0.61 0.67 0.78 0.89 0.97 1.08 1.21 1.38 1.47 1.41 1.50 1.53 1.43 1.33 1.40 1.46 1.39 1.37 1.28 1.19 1.10 1.12 1.15 1.12
0.16 0.17 0.17 0.18 0.21 0.25 0.27 0.29 0.32 0.33 0.35 0.37 0.40 0.45 0.46 0.49 0.53 0.55 0.54 0.54 0.56 0.59 0.67 0.80 0.94 1.06 1.13 1.28 1.27 1.33 1.39 1.46 1.41 1.37 1.37 1.46 1.45 1.48 1.44 1.35 1.23 1.19 1.12
0.18 0.17 0.18 0.19 0.22 0.26 0.29 0.29 0.30 0.33 0.35 0.36 0.37 0.40 0.46 0.48 0.50 0.49 0.51 0.51 0.52 0.53 0.56 0.65 0.75 0.85 0.97 1.15 1.27 1.24 1.30 1.40 1.46 1.44 1.30 1.44 1.47 1.46 1.40 1.42 1.36 1.34 1.32
0.17 0.17 0.18 0.20 0.22 0.25 0.28 0.28 0.28 0.30 0.33 0.36 0.37 0.36 0.39 0.46 0.48 0.49 0.50 0.51 0.51 0.52 0.52 0.54 0.62 0.70 0.82 0.93 1.04 1.22 1.23 1.16 1.23 1.38 1.42 1.36 1.37 1.41 1.36 1.34 1.36 1.30 1.27
0.18 0.19 0.18 0.20 0.23 0.24 0.25 0.25 0.25 0.26 0.31 0.35 0.36 0.36 0.36 0.40 0.46 0.48 0.46 0.46 0.47 0.48 0.49 0.49 0.55 0.62 0.72 0.79 0.84 1.04 1.16 1.16 1.24 1.27 1.30 1.41 1.37 1.26 1.26 1.25 1.21 1.23 1.31
0.17 0.19 0.19 0.21 0.23 0.23 0.23 0.24 0.24 0.27 0.28 0.30 0.32 0.35 0.35 0.38 0.41 0.44 0.44 0.44 0.44 0.45 0.45 0.46 0.50 0.58 0.64 0.71 0.75 0.86 0.97 1.11 1.18 1.22 1.22 1.34 1.33 1.31 1.37 1.22 1.21 1.25 1.25
0.18 0.19 0.20 0.21 0.23 0.23 0.24 0.23 0.25 0.28 0.28 0.27 0.27 0.30 0.33 0.34 0.39 0.41 0.43 0.41 0.43 0.43 0.44 0.45 0.47 0.52 0.61 0.67 0.72 0.80 0.90 0.98 1.03 1.15 1.23 1.28 1.28 1.31 1.28 1.25 1.24 1.22 1.24
0.19 0.20 0.20 0.21 0.21 0.24 0.26 0.27 0.28 0.29 0.28 0.26 0.26 0.26 0.30 0.30 0.36 0.40 0.43 0.45 0.42 0.42 0.42 0.44 0.45 0.50 0.56 0.61 0.69 0.76 0.78 0.83 0.91 0.99 1.08 1.12 1.18 1.22 1.22 1.25 1.21 1.14 1.22
0.20 0.19 0.20 0.21 0.22 0.25 0.26 0.29 0.31 0.31 0.29 0.28 0.26 0.26 0.26 0.29 0.31 0.37 0.39 0.42 0.47 0.46 0.43 0.45 0.47 0.46 0.48 0.58 0.63 0.68 0.68 0.74 0.80 0.84 0.90 0.92 0.96 1.08 1.11 1.16 1.19 1.18 1.20
0.20 0.20 0.21 0.22 0.23 0.25 0.24 0.25 0.29 0.27 0.27 0.27 0.27 0.26 0.25 0.26 0.28 0.30 0.34 0.40 0.44 0.49 0.51 0.53 0.52 0.52 0.55 0.58 0.60 0.70 0.71 0.73 0.73 0.76 0.77 0.79 0.86 0.95 1.04 1.08 1.15 1.00 1.14

GFSMW_prec_pwat_345.txt.gz
Precipitable_Water
0.28 0.29 0.30 0.31 0.33 0.34 0.38 0.45 0.55 0.61 0.66 0.70 0.84 0.99 1.09 1.30 1.38 1.42 1.45 1.57 1.72 1.76 1.67 1.75 1.79 1.76 1.68 1.66 1.72 1.72 1.61 1.61 1.60 1.46 1.39 1.39 1.31 1.20 1.06 1.06 0.95 0.86 0.75
0.24 0.28 0.30 0.31 0.32 0.33 0.33 0.39 0.48 0.58 0.63 0.69 0.78 0.90 1.06 1.19 1.34 1.46 1.43 1.50 1.59 1.76 1.74 1.77 1.72 1.75 1.68 1.67 1.64 1.68 1.60 1.60 1.60 1.39 1.32 1.14 1.15 1.19 1.03 1.06 1.00 0.92 0.83
0.21 0.24 0.28 0.30 0.32 0.31 0.32 0.34 0.41 0.53 0.61 0.66 0.75 0.89 1.00 1.21 1.29 1.37 1.39 1.40 1.55 1.73 1.75 1.77 1.73 1.70 1.64 1.60 1.60 1.62 1.61 1.50 1.57 1.54 1.30 1.18 1.04 1.06 1.02 1.00 1.03 0.98 0.90
0.22 0.23 0.26 0.28 0.30 0.32 0.34 0.36 0.39 0.47 0.57 0.64 0.67 0.71 0.83 0.88 1.15 1.30 1.37 1.44 1.53 1.58 1.76 1.78 1.71 1.66 1.62 1.56 1.60 1.65 1.64 1.60 1.45 1.53 1.54 1.50 1.31 1.01 0.81 0.95 0.97 1.04 0.96
0.23 0.23 0.24 0.27 0.29 0.32 0.33 0.36 0.38 0.42 0.53 0.60 0.66 0.69 0.82 0.95 1.05 1.24 1.31 1.43 1.48 1.58 1.64 1.74 1.72 1.65 1.58 1.48 1.53 1.62 1.64 1.64 1.54 1.49 1.45 1.47 1.30 1.24 0.96 0.82 0.81 0.96 1.00
0.25 0.25 0.26 0.26 0.28 0.31 0.33 0.35 0.35 0.39 0.46 0.56 0.64 0.68 0.72 0.90 0.94 1.10 1.25 1.33 1.43 1.49 1.59 1.64 1.66 1.66 1.53 1.39 1.37 1.55 1.59 1.61 1.59 1.53 1.39 1.28 1.12 1.14 1.06 1.00 0.89 0.86 0.94
0.26 0.26 0.25 0.25 0.26 0.27 0.32 0.33 0.34 0.35 0.41 0.50 0.59 0.67 0.72 0.80 0.97 1.01 1.17 1.30 1.36 1.42 1.48 1.62 1.60 1.67 1.61 1.50 1.45 1.39 1.45 1.50 1.54 1.54 1.26 1.26 1.34 1.34 1.25 1.21 0.97 0.83 0.94
0.25 0.26 0.27 0.26 0.25 0.27 0.29 0.33 0.34 0.34 0.37 0.44 0.53 0.63 0.72 0.76 0.90 1.00 1.07 1.21 1.38 1.40 1.45 1.54 1.64 1.63 1.65 1.63 1.54 1.45 1.49 1.44 1.38 1.36 1.25 1.22 1.40 1.45 1.31 1.22 1.25 0.86 0.86
0.22 0.23 0.25 0.27 0.28 0.27 0.29 0.31 0.34 0.35 0.36 0.40 0.50 0.57 0.67 0.73 0.78 0.91 1.00 1.14 1.32 1.47 1.43 1.49 1.57 1.64 1.66 1.65 1.59 1.53 1.47 1.42 1.35 1.32 1.21 1.16 1.35 1.43 1.37 1.35 1.32 1.05 0.78
0.20 0.22 0.23 0.24 0.27 0.28 0.29 0.32 0.34 0.35 0.38 0.40 0.46 0.54 0.61 0.68 0.75 0.84 0.94 1.05 1.21 1.32 1.49 1.47 1.53 1.56 1.60 1.64 1.64 1.56 1.54 1.50 1.40 1.33 1.24 1.19 1.28 1.36 1.39 1.42 1.46 1.35 1.04
0.19 0.20 0.22 0.23 0.23 0.28 0.29 0.31 0.33 0.35 0.37 0.40 0.43 0.50 0.56 0.65 0.72 0.74 0.90 0.97 1.12 1.22 1.35 1.42 1.48 1.50 1.52 1.56 1.59 1.54 1.50 1.48 1.41 1.37 1.33 1.23 1.29 1.32 1.34 1.43 1.53 1.46 1.28
0.18 0.19 0.21 0.23 0.21 0.25 0.30 0.30 0.32 0.34 0.37 0.39 0.42 0.45 0.54 0.58 0.65 0.71 0.75 0.90 0.96 1.19 1.18 1.41 1.35 1.39 1.52 1.55 1.53 1.43 1.52 1.43 1.40 1.34 1.27 1.22 1.34 1.41 1.44 1.53 1.50 1.52 1.37
0.18 0.18 0.20 0.21 0.22 0.22 0.27 0.30 0.31 0.34 0.37 0.38 0.40 0.41 0.47 0.53 0.58 0.66 0.70 0.82 0.89 1.00 1.20 1.25 1.31 1.44 1.48 1.47 1.53 1.53 1.48 1.46 1.46 1.45 1.39 1.36 1.44 1.47 1.51 1.51 1.51 1.50 1.39
0.16 0.18 0.19 0.19 0.20 0.23 0.24 0.28 0.31 0.34 0.36 0.38 0.38 0.38 0.43 0.51 0.55 0.61 0.65 0.71 0.80 0.91 1.03 1.13 1.21 1.26 1.27 1.30 1.43 1.49 1.49 1.45 1.43 1.44 1.46 1.44 1.44 1.42 1.45 1.50 1.49 1.49 1.43
0.15 0.16 0.18 0.18 0.19 0.22 0.26 0.27 0.32 0.34 0.36 0.36 0.36 0.37 0.42 0.49 0.54 0.56 0.60 0.66 0.72 0.76 0.88 0.99 1.13 1.16 1.28 1.29 1.25 1.31 1.44 1.42 1.35 1.37 1.46 1.50 1.52 1.54 1.51 1.48 1.49 1.48 1.36
0.16 0.17 0.17 0.17 0.18 0.21 0.26 0.29 0.31 0.33 0.37 0.37 0.37 0.36 0.40 0.47 0.51 0.53 0.56 0.57 0.63 0.70 0.76 0.83 0.94 0.98 0.97 1.10 1.22 1.28 1.42 1.48 1.45 1.34 1.34 1.43 1.48 1.50 1.49 1.49 1.50 1.50 1.39
0.17 0.17 0.16 0.17 0.18 0.22 0.26 0.29 0.31 0.34 0.35 0.37 0.38 0.36 0.38 0.44 0.50 0.52 0.54 0.56 0.57 0.64 0.70 0.77 0.85 0.96 1.02 1.02 1.10 1.26 1.32 1.38 1.46 1.41 1.39 1.34 1.36 1.44 1.48 1.46 1.44 1.46 1.36
0.17 0.17 0.17 0.18 0.19 0.22 0.25 0.27 0.31 0.32 0.32 0.36 0.37 0.38 0.38 0.42 0.48 0.50 0.52 0.55 0.58 0.59 0.62 0.73 0.84 0.90 0.97 0.95 1.03 1.13 1.07 1.23 1.45 1.44 1.40 1.34 1.34 1.38 1.42 1.49 1.22 1.26 1.24
0.18 0.18 0.19 0.18 0.19 0.22 0.25 0.25 0.28 0.29 0.30 0.33 0.36 0.39 0.41 0.42 0.47 0.48 0.50 0.54 0.57 0.58 0.60 0.63 0.71 0.79 0.88 0.94 0.97 1.03 1.12 1.18 1.20 1.25 1.35 1.26 1.46 1.41 1.42 1.41 1.27 1.18 1.16
0.18 0.18 0.19 0.19 0.21 0.22 0.23 0.24 0.25 0.27 0.27 0.29 0.33 0.37 0.39 0.43 0.45 0.48 0.50 0.53 0.55 0.56 0.58 0.58 0.61 0.63 0.71 0.81 0.88 0.92 1.02 1.05 1.16 1.25 1.31 1.31 1.37 1.31 1.46 1.37 1.36 1.27 1.24
0.18 0.20 0.19 0.20 0.22 0.23 0.23 0.24 0.25 0.27 0.29 0.31 0.30 0.31 0.36 0.39 0.46 0.48 0.51 0.51 0.53 0.54 0.55 0.55 0.58 0.58 0.60 0.66 0.72 0.81 0.84 0.88 0.97 1.09 1.11 1.26 1.20 1.20 1.24 1.31 1.35 1.42 1.46
0.19 0.19 0.19 0.20 0.22 0.24 0.25 0.25 0.26 0.29 0.31 0.31 0.30 0.28 0.30 0.35 0.41 0.47 0.50 0.51 0.50 0.50 0.51 0.52 0.54 0.57 0.58 0.60 0.64 0.68 0.75 0.79 0.84 0.91 1.06 1.18 1.25 1.23 1.25 1.29 1.30 1.37 1.37
0.19 0.20 0.19 0.20 0.22 0.24 0.26 0.25 0.28 0.31 0.31 0.30 0.29 0.28 0.28 0.30 0.36 0.42 0.44 0.47 0.50 0.49 0.49 0.49 0.48 0.50 0.55 0.58 0.59 0.62 0.65 0.74 0.80 0.89 1.01 1.02 1.06 1.17 1.28 1.27 1.26 1.33 1.30
0.20 0.20 0.19 0.20 0.21 0.24 0.26 0.26 0.28 0.28 0.27 0.28 0.28 0.28 0.28 0.28 0.29 0.36 0.42 0.42 0.44 0.44 0.44 0.43 0.43 0.44 0.47 0.52 0.55 0.57 0.61 0.66 0.71 0.77 0.87 0.94 1.00 1.02 1.14 1.24 1.26 1.27 1.25
0.20 0.21 0.20 0.21 0.22 0.24 0.23 0.23 0.23 0.25 0.24 0.23 0.26 0.28 0.28 0.28 0.28 0.29 0.37 0.40 0.42 0.44 0.40 0.42 0.43 0.42 0.42 0.45 0.50 0.52 0.55 0.60 0.66 0.72 0.81 0.84 0.90 0.93 0.96 1.04 1.13 1.16 1.22
0.19 0.20 0.21 0.22 0.22 0.21 0.21 0.21 0.22 0.23 0.22 0.20 0.22 0.26 0.27 0.29 0.28 0.28 0.28 0.35 0.38 0.38 0.38 0.38 0.40 0.43 0.46 0.48 0.48 0.49 0.51 0.56 0.61 0.65 0.66 0.75 0.75 0.81 0.85 0.86 0.92 1.00 1.06